Location: Maccacari
(45.1333°N, 11.1333°E)
Time: 07:45:47
(UTC+00:00)

Cosmos 494 Rocket - Pass Details

Date: 18 September 2020
Orbit: 741 x 771 km, 74.1° (Epoch: 29 October)

Event Time Altitude Azimuth Distance (km) Brightness Sun altitude
Rises 19:57:55 0° 336° (NNW) 3,244 8.1 -27.1°
Reaches altitude 10° 20:00:19 10° 333° (NNW) 2,317 7.2 -27.4°
Maximum altitude 20:05:31 64° 253° (WSW) 853 4.2 -28.2°
Enters shadow 20:05:38 64° 245° (WSW) 855 4.2 -28.2°
